﻿測定場所 (Monitoring sites),日付 (Measurement date),時間 (Measurement time),線量率 最大値 (max) μGy/h,線量率 最小値 (min) μGy/h,線量率 平均値 (average) μGy/h,
調布 (Chofu),2012-10-21,23:01～24:00,0.0388,0.0344,0.0363,
調布 (Chofu),2012-10-21,22:01～23:00,0.0405,0.0344,0.0363,
調布 (Chofu),2012-10-21,21:01～22:00,0.0396,0.0349,0.0363,
調布 (Chofu),2012-10-21,20:01～21:00,0.0372,0.0337,0.0359,
調布 (Chofu),2012-10-21,19:01～20:00,0.0385,0.0329,0.0354,
調布 (Chofu),2012-10-21,18:01～19:00,0.0382,0.0330,0.0352,
調布 (Chofu),2012-10-21,17:01～18:00,0.0398,0.0332,0.0352,
調布 (Chofu),2012-10-21,16:01～17:00,0.0376,0.0335,0.0352,
調布 (Chofu),2012-10-21,15:01～16:00,0.0369,0.0334,0.0353,
調布 (Chofu),2012-10-21,14:01～15:00,0.0384,0.0333,0.0353,
調布 (Chofu),2012-10-21,13:01～14:00,0.0367,0.0336,0.0352,
調布 (Chofu),2012-10-21,12:01～13:00,0.0373,0.0329,0.0354,
調布 (Chofu),2012-10-21,11:01～12:00,0.0374,0.0332,0.0355,
調布 (Chofu),2012-10-21,10:01～11:00,0.0385,0.0336,0.0358,
調布 (Chofu),2012-10-21,09:01～10:00,0.0400,0.0339,0.0362,
調布 (Chofu),2012-10-21,08:01～09:00,0.0389,0.0339,0.0366,
調布 (Chofu),2012-10-21,07:01～08:00,0.0398,0.0350,0.0367,
調布 (Chofu),2012-10-21,06:01～07:00,0.0397,0.0340,0.0366,
調布 (Chofu),2012-10-21,05:01～06:00,0.0382,0.0349,0.0366,
調布 (Chofu),2012-10-21,04:01～05:00,0.0396,0.0349,0.0367,
調布 (Chofu),2012-10-21,03:01～04:00,0.0412,0.0349,0.0369,
調布 (Chofu),2012-10-21,02:01～03:00,0.0393,0.0344,0.0366,
調布 (Chofu),2012-10-21,01:01～02:00,0.0385,0.0339,0.0362,
調布 (Chofu),2012-10-21,00:01～01:00,0.0386,0.0334,0.0363,
調布 (Chofu),2012-10-20,23:01～24:00,0.0382,0.0337,0.0360,
調布 (Chofu),2012-10-20,22:01～23:00,0.0379,0.0338,0.0356,
調布 (Chofu),2012-10-20,21:01～22:00,0.0373,0.0329,0.0352,
調布 (Chofu),2012-10-20,20:01～21:00,0.0367,0.0334,0.0351,
調布 (Chofu),2012-10-20,19:01～20:00,0.0378,0.0328,0.0349,
調布 (Chofu),2012-10-20,18:01～19:00,0.0368,0.0329,0.0351,
調布 (Chofu),2012-10-20,17:01～18:00,0.0366,0.0326,0.0349,
調布 (Chofu),2012-10-20,16:01～17:00,0.0365,0.0325,0.0347,
調布 (Chofu),2012-10-20,15:01～16:00,0.0364,0.0327,0.0348,
調布 (Chofu),2012-10-20,14:01～15:00,0.0371,0.0328,0.0349,
調布 (Chofu),2012-10-20,13:01～14:00,0.0373,0.0330,0.0349,
調布 (Chofu),2012-10-20,12:01～13:00,0.0369,0.0332,0.0351,
調布 (Chofu),2012-10-20,11:01～12:00,0.0386,0.0333,0.0355,
調布 (Chofu),2012-10-20,10:01～11:00,0.0372,0.0347,0.0360,
調布 (Chofu),2012-10-20,09:01～10:00,0.0391,0.0348,0.0364,
調布 (Chofu),2012-10-20,08:01～09:00,0.0394,0.0339,0.0362,
調布 (Chofu),2012-10-20,07:01～08:00,0.0392,0.0342,0.0363,
調布 (Chofu),2012-10-20,06:01～07:00,0.0380,0.0343,0.0364,
調布 (Chofu),2012-10-20,05:01～06:00,0.0392,0.0346,0.0365,
調布 (Chofu),2012-10-20,04:01～05:00,0.0383,0.0331,0.0363,
調布 (Chofu),2012-10-20,03:01～04:00,0.0378,0.0333,0.0357,
調布 (Chofu),2012-10-20,02:01～03:00,0.0383,0.0343,0.0362,
調布 (Chofu),2012-10-20,01:01～02:00,0.0375,0.0331,0.0359,
調布 (Chofu),2012-10-20,00:01～01:00,0.0377,0.0337,0.0358,
調布 (Chofu),2012-10-19,23:01～24:00,0.0370,0.0330,0.0352,
調布 (Chofu),2012-10-19,22:01～23:00,0.0370,0.0336,0.0353,
調布 (Chofu),2012-10-19,21:01～22:00,0.0371,0.0332,0.0351,
調布 (Chofu),2012-10-19,20:01～21:00,0.0379,0.0329,0.0350,
調布 (Chofu),2012-10-19,19:01～20:00,0.0371,0.0332,0.0351,
調布 (Chofu),2012-10-19,18:01～19:00,0.0366,0.0326,0.0347,
調布 (Chofu),2012-10-19,17:01～18:00,0.0370,0.0329,0.0348,
調布 (Chofu),2012-10-19,16:01～17:00,0.0365,0.0332,0.0347,
調布 (Chofu),2012-10-19,15:01～16:00,0.0367,0.0322,0.0348,
調布 (Chofu),2012-10-19,14:01～15:00,0.0364,0.0326,0.0346,
調布 (Chofu),2012-10-19,13:01～14:00,0.0373,0.0327,0.0347,
調布 (Chofu),2012-10-19,12:01～13:00,0.0371,0.0322,0.0349,
調布 (Chofu),2012-10-19,11:01～12:00,0.0381,0.0336,0.0352,
調布 (Chofu),2012-10-19,10:01～11:00,0.0370,0.0328,0.0352,
調布 (Chofu),2012-10-19,09:01～10:00,0.0372,0.0333,0.0355,
調布 (Chofu),2012-10-19,08:01～09:00,0.0378,0.0336,0.0355,
調布 (Chofu),2012-10-19,07:01～08:00,0.0384,0.0333,0.0354,
調布 (Chofu),2012-10-19,06:01～07:00,0.0375,0.0336,0.0357,
調布 (Chofu),2012-10-19,05:01～06:00,0.0420,0.0343,0.0372,
調布 (Chofu),2012-10-19,04:01～05:00,0.0506,0.0366,0.0432,
調布 (Chofu),2012-10-19,03:01～04:00,0.0594,0.0487,0.0532,
調布 (Chofu),2012-10-19,02:01～03:00,0.0608,0.0533,0.0571,
調布 (Chofu),2012-10-19,01:01～02:00,0.0573,0.0456,0.0507,
調布 (Chofu),2012-10-19,00:01～01:00,0.0499,0.0438,0.0470,
調布 (Chofu),2012-10-18,23:01～24:00,0.0558,0.0453,0.0501,
調布 (Chofu),2012-10-18,22:01～23:00,0.0606,0.0472,0.0539,
調布 (Chofu),2012-10-18,21:01～22:00,0.0508,0.0409,0.0463,
調布 (Chofu),2012-10-18,20:01～21:00,0.0476,0.0382,0.0431,
調布 (Chofu),2012-10-18,19:01～20:00,0.0405,0.0353,0.0373,
調布 (Chofu),2012-10-18,18:01～19:00,0.0403,0.0348,0.0370,
調布 (Chofu),2012-10-18,17:01～18:00,0.0417,0.0360,0.0379,
調布 (Chofu),2012-10-18,16:01～17:00,0.0431,0.0355,0.0386,
調布 (Chofu),2012-10-18,15:01～16:00,0.0390,0.0345,0.0364,
調布 (Chofu),2012-10-18,14:01～15:00,0.0415,0.0353,0.0378,
調布 (Chofu),2012-10-18,13:01～14:00,0.0434,0.0365,0.0396,
調布 (Chofu),2012-10-18,12:01～13:00,0.0394,0.0343,0.0365,
調布 (Chofu),2012-10-18,11:01～12:00,0.0399,0.0341,0.0363,
調布 (Chofu),2012-10-18,10:01～11:00,0.0389,0.0341,0.0362,
調布 (Chofu),2012-10-18,09:01～10:00,0.0396,0.0347,0.0363,
調布 (Chofu),2012-10-18,08:01～09:00,0.0428,0.0356,0.0378,
調布 (Chofu),2012-10-18,07:01～08:00,0.0406,0.0347,0.0375,
調布 (Chofu),2012-10-18,06:01～07:00,0.0402,0.0340,0.0360,
調布 (Chofu),2012-10-18,05:01～06:00,0.0372,0.0335,0.0358,
調布 (Chofu),2012-10-18,04:01～05:00,0.0386,0.0338,0.0357,
調布 (Chofu),2012-10-18,03:01～04:00,0.0377,0.0336,0.0360,
調布 (Chofu),2012-10-18,02:01～03:00,0.0370,0.0343,0.0357,
調布 (Chofu),2012-10-18,01:01～02:00,0.0386,0.0344,0.0362,
調布 (Chofu),2012-10-18,00:01～01:00,0.0394,0.0351,0.0367,
調布 (Chofu),2012-10-17,23:01～24:00,0.0397,0.0346,0.0371,
調布 (Chofu),2012-10-17,22:01～23:00,0.0410,0.0358,0.0378,
調布 (Chofu),2012-10-17,21:01～22:00,0.0414,0.0354,0.0379,
調布 (Chofu),2012-10-17,20:01～21:00,0.0441,0.0368,0.0409,
調布 (Chofu),2012-10-17,19:01～20:00,0.0495,0.0398,0.0429,
調布 (Chofu),2012-10-17,18:01～19:00,0.0518,0.0431,0.0476,
調布 (Chofu),2012-10-17,17:01～18:00,0.0538,0.0396,0.0454,
調布 (Chofu),2012-10-17,16:01～17:00,0.0442,0.0351,0.0398,
調布 (Chofu),2012-10-17,15:01～16:00,0.0391,0.0350,0.0367,
調布 (Chofu),2012-10-17,14:01～15:00,0.0390,0.0342,0.0363,
調布 (Chofu),2012-10-17,13:01～14:00,0.0394,0.0349,0.0363,
調布 (Chofu),2012-10-17,12:01～13:00,0.0381,0.0342,0.0362,
調布 (Chofu),2012-10-17,11:01～12:00,0.0405,0.0348,0.0368,
調布 (Chofu),2012-10-17,10:01～11:00,0.0398,0.0355,0.0370,
調布 (Chofu),2012-10-17,09:01～10:00,0.0400,0.0356,0.0375,
調布 (Chofu),2012-10-17,08:01～09:00,0.0403,0.0348,0.0376,
調布 (Chofu),2012-10-17,07:01～08:00,0.0421,0.0350,0.0373,
調布 (Chofu),2012-10-17,06:01～07:00,0.0409,0.0351,0.0376,
調布 (Chofu),2012-10-17,05:01～06:00,0.0414,0.0350,0.0372,
調布 (Chofu),2012-10-17,04:01～05:00,0.0395,0.0350,0.0371,
調布 (Chofu),2012-10-17,03:01～04:00,0.0416,0.0353,0.0376,
調布 (Chofu),2012-10-17,02:01～03:00,0.0406,0.0360,0.0375,
調布 (Chofu),2012-10-17,01:01～02:00,0.0406,0.0358,0.0376,
調布 (Chofu),2012-10-17,00:01～01:00,0.0407,0.0345,0.0367,
調布 (Chofu),2012-10-16,23:01～24:00,0.0399,0.0346,0.0366,
調布 (Chofu),2012-10-16,22:01～23:00,0.0394,0.0344,0.0362,
調布 (Chofu),2012-10-16,21:01～22:00,0.0378,0.0339,0.0360,
調布 (Chofu),2012-10-16,20:01～21:00,0.0375,0.0342,0.0359,
調布 (Chofu),2012-10-16,19:01～20:00,0.0393,0.0345,0.0362,
調布 (Chofu),2012-10-16,18:01～19:00,0.0381,0.0341,0.0360,
調布 (Chofu),2012-10-16,17:01～18:00,0.0369,0.0338,0.0356,
調布 (Chofu),2012-10-16,16:01～17:00,0.0382,0.0345,0.0361,
調布 (Chofu),2012-10-16,15:01～16:00,0.0381,0.0336,0.0359,
調布 (Chofu),2012-10-16,14:01～15:00,0.0391,0.0336,0.0360,
調布 (Chofu),2012-10-16,13:01～14:00,0.0373,0.0343,0.0360,
調布 (Chofu),2012-10-16,12:01～13:00,0.0390,0.0342,0.0362,
調布 (Chofu),2012-10-16,11:01～12:00,0.0395,0.0346,0.0365,
調布 (Chofu),2012-10-16,10:01～11:00,0.0394,0.0350,0.0364,
調布 (Chofu),2012-10-16,09:01～10:00,0.0399,0.0347,0.0367,
調布 (Chofu),2012-10-16,08:01～09:00,0.0400,0.0353,0.0369,
調布 (Chofu),2012-10-16,07:01～08:00,0.0401,0.0341,0.0366,
調布 (Chofu),2012-10-16,06:01～07:00,0.0401,0.0344,0.0365,
調布 (Chofu),2012-10-16,05:01～06:00,0.0395,0.0346,0.0366,
調布 (Chofu),2012-10-16,04:01～05:00,0.0390,0.0346,0.0365,
調布 (Chofu),2012-10-16,03:01～04:00,0.0386,0.0343,0.0364,
調布 (Chofu),2012-10-16,02:01～03:00,0.0389,0.0342,0.0362,
調布 (Chofu),2012-10-16,01:01～02:00,0.0395,0.0335,0.0362,
調布 (Chofu),2012-10-16,00:01～01:00,0.0382,0.0345,0.0363,
調布 (Chofu),2012-10-15,23:01～24:00,0.0410,0.0336,0.0361,
調布 (Chofu),2012-10-15,22:01～23:00,0.0392,0.0346,0.0361,
調布 (Chofu),2012-10-15,21:01～22:00,0.0384,0.0345,0.0360,
調布 (Chofu),2012-10-15,20:01～21:00,0.0379,0.0340,0.0360,
調布 (Chofu),2012-10-15,19:01～20:00,0.0389,0.0343,0.0360,
調布 (Chofu),2012-10-15,18:01～19:00,0.0374,0.0342,0.0360,
調布 (Chofu),2012-10-15,17:01～18:00,0.0372,0.0338,0.0357,
調布 (Chofu),2012-10-15,16:01～17:00,0.0377,0.0345,0.0361,
調布 (Chofu),2012-10-15,15:01～16:00,0.0382,0.0341,0.0359,
調布 (Chofu),2012-10-15,14:01～15:00,0.0376,0.0335,0.0359,
調布 (Chofu),2012-10-15,13:01～14:00,0.0380,0.0346,0.0359,
調布 (Chofu),2012-10-15,12:01～13:00,0.0377,0.0344,0.0360,
調布 (Chofu),2012-10-15,11:01～12:00,0.0389,0.0348,0.0362,
調布 (Chofu),2012-10-15,10:01～11:00,0.0415,0.0348,0.0366,
調布 (Chofu),2012-10-15,09:01～10:00,0.0405,0.0351,0.0372,
調布 (Chofu),2012-10-15,08:01～09:00,0.0411,0.0348,0.0377,
調布 (Chofu),2012-10-15,07:01～08:00,0.0406,0.0357,0.0376,
調布 (Chofu),2012-10-15,06:01～07:00,0.0410,0.0352,0.0375,
調布 (Chofu),2012-10-15,05:01～06:00,0.0391,0.0351,0.0368,
調布 (Chofu),2012-10-15,04:01～05:00,0.0397,0.0353,0.0367,
調布 (Chofu),2012-10-15,03:01～04:00,0.0387,0.0341,0.0363,
調布 (Chofu),2012-10-15,02:01～03:00,0.0389,0.0347,0.0364,
調布 (Chofu),2012-10-15,01:01～02:00,0.0381,0.0334,0.0363,
調布 (Chofu),2012-10-15,00:01～01:00,0.0390,0.0343,0.0362,
